Date String (YYYY-MM-DD hh:mm:ss) UTC,Instrument flags,absolute air pressure of the measurement (hPa),sample flow rate (lpm),inlet stack bypass flow (lpm),air temperature of the measurement (°C),ambient temperature measured by the external sensor (°C),aerosol sample conditioner tube jacket temperature (°C),OPC LED temperature (°C),internal box temperature (°C),relative humidity of the measurement (%),span deviation,mass concentration of particles derived from Lorenz-Mie calculation of OPC scattering (μg/m³),mass concentration of particles derived from Lorenz-Mie calculation of OPC scattering (μg/m³),mass concentration of particles derived from Lorenz-Mie calculation of OPC scattering (μg/m³)
DateTimeUTC,F1_M11,P_M11,Q1_M11,Q2_M11,T1_M11,T2_M11,T3_M11,T4_M11,T5_M11,U1_M11,ZSPAN_M11,X2_M11,X0_M11,X1_M11
2023-09-05 00:00:00,SystemResetWarning,0822.4,5.00,000.00,027.5,024.4,000.0,035.7,028.6,20.4,0000.0,0001.95,0009.94,0000.94
2023-09-05 00:01:00,SystemResetWarning,0822.4,5.00,000.00,027.4,023.8,000.0,035.7,028.5,20.5,0000.0,0002.00,0009.58,0000.96
2023-09-05 00:02:00,SystemResetWarning,0822.4,5.02,000.00,027.3,024.1,000.0,035.7,028.6,20.4,0000.0,0002.14,0009.84,0000.97
2023-09-05 00:03:00,SystemResetWarning,0822.4,5.00,000.00,027.3,024.5,000.0,035.7,028.7,20.4,0000.0,0002.22,0010.49,0000.98
2023-09-05 00:04:00,SystemResetWarning,0822.4,4.99,000.00,027.3,024.9,000.0,035.7,028.9,20.5,0000.0,0002.26,0011.26,0000.99
2023-09-05 00:05:00,SystemResetWarning,0822.4,5.02,000.00,027.4,025.4,000.0,035.7,029.0,20.3,0000.0,0002.26,0011.77,0001.00
2023-09-05 00:06:00,SystemResetWarning,0822.4,5.00,000.00,027.4,025.7,000.0,035.7,029.1,20.3,0000.0,0002.28,0012.23,0001.00
2023-09-05 00:07:00,SystemResetWarning,0822.4,5.00,000.00,027.5,026.1,000.0,035.7,029.2,20.2,0000.0,0002.28,0011.92,0001.00
2023-09-05 00:08:00,SystemResetWarning,0822.6,5.00,000.00,027.6,026.3,000.0,035.8,029.3,19.8,0000.0,0002.26,0011.38,0001.01
2023-09-05 00:09:00,SystemResetWarning,0822.6,5.00,000.00,027.6,026.6,000.0,035.8,029.4,19.8,0000.0,0002.26,0011.04,0001.01
2023-09-05 00:10:00,SystemResetWarning,0822.9,5.00,000.00,027.7,026.7,000.0,035.8,029.5,19.7,0000.0,0002.24,0011.17,0001.02
2023-09-05 00:11:00,SystemResetWarning,0822.9,4.98,000.00,027.7,025.7,000.0,035.8,029.1,19.8,0000.0,0002.18,0010.44,0001.04
2023-09-05 00:12:00,SystemResetWarning,0822.9,5.01,000.00,027.5,024.1,000.0,035.8,028.5,20.0,0000.0,0002.11,0010.06,0001.04
2023-09-05 00:13:00,SystemResetWarning,0822.8,5.01,000.00,027.4,023.9,000.0,035.7,028.5,20.0,0000.0,0002.08,0009.73,0001.03
2023-09-05 00:14:00,SystemResetWarning,0822.8,5.00,000.00,027.3,024.2,000.0,035.7,028.6,20.0,0000.0,0002.06,0009.18,0001.04
2023-09-05 00:15:00,SystemResetWarning,0822.6,5.00,000.00,027.3,024.6,000.0,035.7,028.7,19.8,0000.0,0002.01,0008.48,0001.04
2023-09-05 00:16:00,SystemResetWarning,0822.7,5.00,000.00,027.4,025.0,000.0,035.7,028.9,19.8,0000.0,0002.07,0008.16,0001.04
2023-09-05 00:17:00,SystemResetWarning,0822.8,5.00,000.00,027.4,025.4,000.0,035.7,029.0,19.7,0000.0,0002.10,0007.83,0001.04
2023-09-05 00:18:00,SystemResetWarning,0823.2,5.01,000.00,027.5,025.8,000.0,035.7,029.2,19.8,0000.0,0002.12,0007.68,0001.04
2023-09-05 00:19:00,SystemResetWarning,0823.0,5.00,000.00,027.5,026.1,000.0,035.8,029.3,19.7,0000.0,0002.18,0010.14,0001.05
2023-09-05 00:20:00,SystemResetWarning,0823.0,5.00,000.00,027.6,026.4,000.0,035.8,029.4,19.8,0000.0,0002.19,0012.18,0001.05
2023-09-05 00:21:00,SystemResetWarning,0823.1,5.00,000.00,027.7,026.6,000.0,035.8,029.5,19.6,0000.0,0002.23,0012.32,0001.06
2023-09-05 00:22:00,SystemResetWarning,0822.9,5.00,000.00,027.7,026.6,000.0,035.9,029.5,19.4,0000.0,0002.23,0012.43,0001.06
2023-09-05 00:23:00,SystemResetWarning,0823.0,4.98,000.00,027.7,025.2,000.0,035.8,029.0,19.6,0000.0,0002.27,0013.01,0001.06
2023-09-05 00:24:00,SystemResetWarning,0822.9,5.02,000.00,027.5,023.9,000.0,035.7,028.5,19.7,0000.0,0002.21,0012.73,0001.07
2023-09-05 00:25:00,SystemResetWarning,0822.9,5.00,000.00,027.4,023.9,000.0,035.7,028.6,20.0,0000.0,0002.09,0012.84,0001.05
2023-09-05 00:26:00,SystemResetWarning,0823.0,4.98,000.00,027.3,024.3,000.0,035.7,028.6,19.9,0000.0,0002.05,0012.87,0001.04
2023-09-05 00:27:00,SystemResetWarning,0823.1,5.01,000.00,027.4,024.7,000.0,035.7,028.8,19.7,0000.0,0002.03,0012.74,0001.03
2023-09-05 00:28:00,SystemResetWarning,0823.0,5.01,000.00,027.4,025.1,000.0,035.7,029.0,19.9,0000.0,0001.97,0012.25,0001.04
2023-09-05 00:29:00,SystemResetWarning,0823.0,4.99,000.00,027.4,025.5,000.0,035.7,029.1,19.7,0000.0,0001.88,0012.07,0001.03
2023-09-05 00:30:00,SystemResetWarning,0823.1,5.00,000.00,027.5,025.9,000.0,035.8,029.2,19.9,0000.0,0001.77,0010.45,0001.02
2023-09-05 00:31:00,SystemResetWarning,0823.0,5.00,000.00,027.6,026.2,000.0,035.8,029.3,19.8,0000.0,0001.66,0006.03,0001.00
2023-09-05 00:32:00,SystemResetWarning,0823.0,5.00,000.00,027.6,026.5,000.0,035.8,029.4,19.7,0000.0,0001.57,0005.88,0000.99
2023-09-05 00:33:00,SystemResetWarning,0822.9,5.01,000.00,027.7,026.7,000.0,035.9,029.5,19.5,0000.0,0001.53,0006.34,0000.99
2023-09-05 00:34:00,SystemResetWarning,0823.1,5.00,000.00,027.8,026.9,000.0,035.9,029.6,19.4,0000.0,0001.46,0005.11,0000.99
2023-09-05 00:35:00,SystemResetWarning,0822.9,4.99,000.00,027.8,026.6,000.0,035.9,029.5,19.4,0000.0,0001.41,0005.09,0000.98
2023-09-05 00:36:00,SystemResetWarning,0822.8,5.00,000.00,027.7,025.0,000.0,035.9,028.9,19.5,0000.0,0001.38,0004.72,0000.97
2023-09-05 00:37:00,SystemResetWarning,0822.7,5.01,000.00,027.6,023.9,000.0,035.8,028.7,19.7,0000.0,0001.38,0004.45,0000.97
2023-09-05 00:38:00,SystemResetWarning,0822.7,5.00,000.00,027.5,024.0,000.0,035.8,028.7,19.6,0000.0,0001.33,0004.22,0000.97
2023-09-05 00:39:00,SystemResetWarning,0822.7,4.99,000.00,027.4,024.4,000.0,035.8,028.7,19.8,0000.0,0001.30,0004.11,0000.96
2023-09-05 00:40:00,SystemResetWarning,0822.7,5.00,000.00,027.5,024.8,000.0,035.8,028.9,19.8,0000.0,0001.32,0004.14,0000.96
2023-09-05 00:41:00,SystemResetWarning,0822.7,5.01,000.00,027.5,025.3,000.0,035.8,029.1,19.6,0000.0,0001.36,0004.21,0000.97
2023-09-05 00:42:00,SystemResetWarning,0823.0,5.00,000.00,027.5,025.7,000.0,035.8,029.2,19.5,0000.0,0001.39,0004.29,0000.99
2023-09-05 00:43:00,SystemResetWarning,0823.1,5.00,000.00,027.6,026.0,000.0,035.8,029.3,19.7,0000.0,0001.40,0003.78,0001.00
2023-09-05 00:44:00,SystemResetWarning,0822.8,5.01,000.00,027.6,026.3,000.0,035.9,029.4,19.7,0000.0,0001.41,0002.66,0000.99
2023-09-05 00:45:00,SystemResetWarning,0823.0,5.00,000.00,027.7,026.6,000.0,035.9,029.5,19.8,0000.0,0001.42,0002.73,0000.99
2023-09-05 00:46:00,SystemResetWarning,0822.8,4.99,000.00,027.8,026.8,000.0,035.9,029.6,19.7,0000.0,0001.44,0002.65,0000.99
2023-09-05 00:47:00,SystemResetWarning,0823.0,4.99,000.00,027.8,027.0,000.0,036.0,029.7,19.1,0000.0,0001.50,0002.61,0001.01
2023-09-05 00:48:00,SystemResetWarning,0822.8,4.99,000.00,027.9,026.4,000.0,036.0,029.5,19.4,0000.0,0001.55,0002.69,0001.04
2023-09-05 00:49:00,SystemResetWarning,0822.8,5.00,000.00,027.8,024.6,000.0,035.9,028.9,19.7,0000.0,0001.52,0002.65,0001.03
2023-09-05 00:50:00,SystemResetWarning,0822.7,5.01,000.00,027.6,023.9,000.0,035.8,028.7,19.9,0000.0,0001.51,0002.65,0001.03
2023-09-05 00:51:00,SystemResetWarning,0822.7,5.01,000.00,027.5,024.1,000.0,035.8,028.7,20.0,0000.0,0001.49,0002.58,0001.04
2023-09-05 00:52:00,SystemResetWarning,0822.7,5.00,000.00,027.5,024.5,000.0,035.8,028.8,19.9,0000.0,0001.45,0002.38,0001.06
2023-09-05 00:53:00,SystemResetWarning,0823.2,5.00,000.00,027.5,024.9,000.0,035.9,029.0,20.0,0000.0,0001.41,0002.32,0001.05
2023-09-05 00:54:00,SystemResetWarning,0823.0,5.00,000.00,027.5,025.3,000.0,035.9,029.1,20.1,0000.0,0001.42,0002.39,0001.06
2023-09-05 00:55:00,SystemResetWarning,0822.9,5.00,000.00,027.6,025.7,000.0,035.9,029.3,20.2,0000.0,0001.42,0002.41,0001.07
2023-09-05 00:56:00,SystemResetWarning,0823.0,5.00,000.00,027.6,026.1,000.0,035.9,029.4,20.3,0000.0,0001.43,0002.40,0001.08
2023-09-05 00:57:00,SystemResetWarning,0823.0,5.00,000.00,027.7,026.4,000.0,035.9,029.5,20.2,0000.0,0001.46,0002.49,0001.10
2023-09-05 00:58:00,SystemResetWarning,0823.1,5.00,000.00,027.8,026.6,000.0,036.0,029.5,20.0,0000.0,0001.45,0002.42,0001.09
2023-09-05 00:59:00,SystemResetWarning,0822.8,5.00,000.00,027.8,026.8,000.0,036.0,029.6,19.9,0000.0,0001.44,0002.38,0001.08
